Flag for U.S.A. Weather past 2 weeks in Wheaton, Illinois, U.S.A.

Now
59 °F

Passing clouds.


Feels Like: 56 °F
Forecast: 41 / 64 °F
Wind: 15 mph from Southeast

Location: Dupage Airport


UV Index: 0 (Low)

Visibility: 10 mi


Pressure: 29.92 "Hg

Humidity: 46%

Dew point: 38 °F

Location of WheatonLocation

Historic Weather in Wheaton

°F

Wheaton temperature yesterday

Maximum temperature yesterday: 53 °F (at 1:52 PM)
Minimum temperature yesterday: 29 °F (at 4:52 AM)
Average temperature yesterday: 42 °F

Past Weeks' High & Low Weather Summary

 TemperatureHumidityPressure
High79 °F (Apr 12, 3:52 PM)97% (Apr 21, 9:52 PM)30.38 "Hg (Apr 21, 9:52 PM)
Low24 °F (Apr 15, 5:52 AM)16% (Apr 11, 11:52 AM)29.35 "Hg (Apr 14, 2:52 AM)
Average51 °F58%30.01 "Hg
* Reported Apr 9 10:52 AM — Apr 24 10:52 AM, Wheaton, Weather by CustomWeather, © 2014

Note: Actual official high and low records may vary slightly from our data, if they occured in-between our weather recording intervals... More about our weather records

Advertising

Historic Weather Conditions — Data for Previous 24 hours

 ConditionsComfort  
Time TempWeatherWind HumidityBarometerVisibility
10:52 AM
Apr 24
59 °FPassing clouds.15 mph46%29.92 "Hg10 mi
9:52 AM55 °FPartly sunny.16 mph49%29.94 "Hg10 mi
8:52 AM51 °FPassing clouds.17 mph56%29.96 "Hg10 mi
7:52 AM47 °FScattered clouds.12 mph64%29.98 "Hg10 mi
6:52 AM43 °FPassing clouds.12 mph71%30.00 "Hg10 mi
5:52 AM42 °FOvercast.9 mph71%30.01 "Hg10 mi
4:52 AM41 °FOvercast.12 mph70%30.03 "Hg10 mi
3:52 AM39 °FMostly cloudy.9 mph76%30.05 "Hg10 mi
2:52 AM39 °FLight rain. Overcast.8 mph79%30.07 "Hg10 mi
1:52 AM38 °FMostly cloudy.8 mph83%30.06 "Hg10 mi
12:52 AM39 °FOvercast.6 mph76%30.08 "Hg10 mi
11:52 PM
Apr 23
40 °FLight rain. Mostly cloudy.7 mph65%30.04 "Hg10 mi
10:52 PM41 °FLight rain. Overcast.13 mph55%30.02 "Hg10 mi
9:52 PM42 °FOvercast.10 mph45%30.07 "Hg10 mi
8:52 PM43 °FOvercast.13 mph43%30.09 "Hg10 mi
7:52 PM45 °FOvercast.10 mph44%30.11 "Hg10 mi
6:52 PM47 °FPartly sunny.8 mph41%30.11 "Hg10 mi
5:52 PM49 °FPartly sunny.8 mph39%30.13 "Hg10 mi
4:52 PM51 °FPassing clouds.9 mph36%30.12 "Hg10 mi
3:52 PM52 °FSunny.10 mph34%30.12 "Hg10 mi
2:52 PM53 °FSunny.10 mph34%30.13 "Hg10 mi
1:52 PM53 °FSunny.5 mph37%30.14 "Hg10 mi
12:52 PM50 °FSunny.8 mph39%30.17 "Hg10 mi
11:52 AM49 °FSunny.9 mph41%30.18 "Hg10 mi
Weather by CustomWeather, © 2014

See weather overview